DECAYED
Showing default

LEMUR 2 YNDRD, 44413 (Decayed)

Orbit data source: Space-Track

LEMUR 2 YNDRD, 44413 was a payload satellite owned by Spire (US) in LEO that was launched on Fri, 05 Jul 2019 UTC via a SOYUZ-2-1B launch vehicle from the Vostochny Cosmodrome (VOSTO). Payload-class satellites include a variety of spacecraft equipped with specific instruments for various scientific and technological missions. These include communications satellites like Starlink; space stations such as the ISS; scientific satellites like the Hubble; Earth observation satellites from companies like Planet Labs, Umbra, and HawkEye 360; GPS; miniature CubeSats for education and research; and military/defense satellites.

Loading next visibility...
Identifier
44413, 2019-038AD
Orbit
Decayed
Last TLE update
1 year ago
Origin
Manufacturer
Spire/Glasgow
Mission
Decayed Commercial Com/MetRO
Bus & Motor
CUBESAT 3U, Unknown motor
Mass
4.6 kg wet, 4.6 kg dry
Launch date (UTC)
2019-07-05 (6 years ago)
Launch vehicle
SOYUZ-2-1B
Launch site
Vostochny Cosmodrome (VOSTO)
Object type
Payload
Rocket body
Debris
Shape & HBR
Box + 2 Pan, 0.7 m
Radar Cross Section
0.124 m², Small (<0.1 m²)

Expand to show TLE details & history

TLE from 1 year ago
0 LEMUR 2 YNDRD
1 44413U 19038AD  24118.54845355  .15903007  28318-5  44698-3 0  9998
2 44413  97.6172 122.0256 0009235 214.8249 145.2449 16.44797926267264
Epoch: 2024-04-27T13:09Z
TLE epoch observation values (Epoch: 2024-04-27T13:09:46.386Z)
Latitude
-0.00004°
Longitude
68.56838°
Altitude
161.28 km
Speed
7.806 km/s
True Right ascension
08h 08m 06s
True Declination
0° 00' 00"
Sunlit
Object was in daylight at epoch
Visualization orbit readout
Visualization observer readout
Orbital elements
Apogee altitude
155.91 km
Perigee altitude
143.853 km
Semi-major axis
6,528.019 km
Eccentricity
0.00092
Inclination
97.6172°
RAAN
122.0256°
Arg. of periapsis
214.8249°
True anomaly
Unknown
Mean anomaly
145.2449°
Eccentric anomaly
Unknown
Mean motion
4.11501 °/min
Orbital period
87.48 mins
BSTAR
0.00044698
Loading maneuver chart data...
Loading SW <> Apogee altitude chart data...

LEMUR 2 YNDRD Visibility forecast

Observer location: undefined°, undefined°

Span
Click to sort rows by Start time (UTC) header in descending order
Start Az.
Max El. time (UTC)
Max El. Az.
Max El.
End time (UTC)
End Az.
4 mins2025-07-11 23:43:02.728Z132.312° SE2025-07-11 23:46:02.728Z85.725° E39.981°2025-07-11 23:47:02.728Z0.928° NNE
4 mins2025-07-12 00:29:02.728Z143.549° SSE2025-07-12 00:32:02.728Z93.577° ESE42.731°2025-07-12 00:33:02.728Z357.645° N
4 mins2025-07-12 00:38:02.728Z146.783° SSE2025-07-12 00:41:02.728Z108.978° ESE42.57°2025-07-12 00:42:02.728Z8.631° NNE
4 mins2025-07-12 00:47:02.728Z149.894° SSE2025-07-12 00:50:02.728Z121.481° SE42.243°2025-07-12 00:51:02.728Z22.698° NE
4 mins2025-07-12 01:15:02.728Z156.326° SSE2025-07-12 01:18:02.728Z108.889° ESE44.369°2025-07-12 01:19:02.728Z353.712° N
4 mins2025-07-12 01:24:02.728Z159.418° S2025-07-12 01:27:02.728Z133.521° SE44.095°2025-07-12 01:28:02.728Z357.925° N
4 mins2025-07-12 01:33:02.728Z162.337° S2025-07-12 01:36:02.728Z148.812° SSE43.635°2025-07-12 01:37:02.728Z1.973° NNE
4 mins2025-07-12 01:42:02.728Z165.086° S2025-07-12 01:46:02.728Z6.648° NNE44.482°2025-07-12 01:46:02.728Z6.648° NNE
4 mins2025-07-12 02:01:02.728Z170.397° S2025-07-12 02:04:02.728Z182.078° SSW44.894°2025-07-12 02:05:02.728Z349.609° N
4 mins2025-07-12 02:10:02.728Z173.119° S2025-07-12 02:13:02.728Z188.27° SSW44.486°2025-07-12 02:14:02.728Z346.703° N
4 mins2025-07-12 02:19:02.728Z175.639° S2025-07-12 02:22:02.728Z191.544° SSW43.874°2025-07-12 02:23:02.728Z338.933° N
4 mins2025-07-12 02:28:02.728Z177.967° S2025-07-12 02:32:02.728Z320.046° NNW44.115°2025-07-12 02:32:02.728Z320.046° NNW
4 mins2025-07-12 02:37:02.728Z180.109° SSW2025-07-12 02:41:02.728Z282.679° WNW44.515°2025-07-12 02:41:02.728Z282.679° WNW
4 mins2025-07-12 02:47:02.728Z185.037° SSW2025-07-12 02:50:02.728Z249.13° W44.302°2025-07-12 02:51:02.728Z345.864° N
4 mins2025-07-12 02:56:02.728Z187.174° SSW2025-07-12 02:59:02.728Z233.335° WSW43.741°2025-07-12 03:00:02.728Z337.151° NNW
4 mins2025-07-12 03:05:02.728Z189.123° SSW2025-07-12 03:08:02.728Z226.272° WSW42.957°2025-07-12 03:09:02.728Z322.95° NNW
4 mins2025-07-12 03:14:02.728Z190.891° SSW2025-07-12 03:18:02.728Z302.612° NW42.658°2025-07-12 03:18:02.728Z302.612° NW
4 mins2025-07-12 03:33:02.728Z199.253° SSW2025-07-12 03:36:02.728Z263.594° W42.575°2025-07-12 03:37:02.728Z342.906° N
4 mins2025-07-12 03:42:02.728Z200.716° SSW2025-07-12 03:45:02.728Z252.48° W41.839°2025-07-12 03:46:02.728Z330.394° NNW
4 mins2025-07-12 03:51:02.728Z202.032° SSW2025-07-12 03:54:02.728Z245.556° WSW40.858°2025-07-12 03:55:02.728Z314.629° NW
4 mins2025-07-12 04:00:02.728Z203.207° SW2025-07-12 04:04:02.728Z297.681° NW40.103°2025-07-12 04:04:02.728Z297.681° NW
4 mins2025-07-12 04:19:02.728Z212.248° SW2025-07-12 04:22:02.728Z271.241° WNW39.688°2025-07-12 04:23:02.728Z340.988° N
4 mins2025-07-12 04:28:02.728Z213.089° SW2025-07-12 04:31:02.728Z263.086° W38.746°2025-07-12 04:32:02.728Z326.391° NNW
4 mins2025-07-12 04:37:02.728Z213.832° SW2025-07-12 04:40:02.728Z257.375° W37.538°2025-07-12 04:41:02.728Z311.108° NW
4 mins2025-07-12 05:05:02.728Z223.691° SW2025-07-12 05:08:02.728Z277.09° WNW35.627°2025-07-12 05:09:02.728Z340.193° N
4 mins2025-07-12 05:14:02.728Z224.041° SW2025-07-12 05:17:02.728Z270.68° WNW34.442°2025-07-12 05:18:02.728Z324.634° NNW
|